Fort Leonard Wood, MO

11:27 AM CST on February 25, 2017 (GMT -0600)
Waynesville Regional At Forney Field

Weather History for KTBN - April, 2012

Change the Weather History Date:

Saturday, April 14, 2012

  Actual Average Record
Temperature  
Mean Temperature 66 °F -  
Max Temperature 77 °F 66 °F 87 °F (2006)
Min Temperature 56 °F 48 °F 30 °F (1997)
Cooling Degree Days 1    
Growing Degree Days 16 (Base 50)    
Moisture  
Dew Point 62 °F    
Average Humidity 95    
Maximum Humidity 100    
Minimum Humidity 62    
Precipitation  
Precipitation 0.60 in - - ()
Sea Level Pressure  
Sea Level Pressure 29.91 in    
Wind  
Wind Speed 6 mph (SSE)    
Max Wind Speed 20 mph    
Max Gust Speed 31 mph    
Visibility 6 miles    
Events Fog , Rain , Thunderstorm    
Averages and records for this station are not official NWS values.
T = Trace of Precipitation, MM = Missing Value Source: NWS Daily Summary

Daily Weather History Graph

Daily Weather History Graph

Search for Another Location

Airport or City:

Trip Planner

Search our weather history database for the weather conditions in past years. The results will help you decide how hot, cold, wet, or windy it might be!

Date:

Astronomy

Apr. 14, 2012 Rise Set
Actual Time 6:34 AM CDT 7:43 PM CDT
Civil Twilight 6:07 AM CDT 8:10 PM CDT
Nautical Twilight 5:34 AM CDT 8:43 PM CDT
Astronomical Twilight 5:01 AM CDT 9:16 PM CDT
Moon 2:50 AM CDT (4/14) 1:43 PM CDT (4/14)
Length of Visible Light 14h 03m
Length of Day
13h 09m
Last Quarter, 37% of the Moon is Illuminated
Apr 14
Last Quarter
Apr 21
New
Apr 29
First Quarter
May 5
Full
May 12
Last Quarter

Hourly Weather History & Observations

Time (CDT) Temp. Dew Point Humidity Pressure Visibility Wind Dir Wind Speed Gust Speed Precip Events Conditions
12:05 AM 59.0 °F 59.0 °F 100% 30.00 in 10.0 mi NNW 6.9 mph 19.6 mph N/A Thunderstorm Mostly Cloudy
12:07 AM 59.0 °F 59.0 °F 100% 29.99 in 10.0 mi North 8.1 mph - N/A Thunderstorm Mostly Cloudy
12:11 AM 59.0 °F 59.0 °F 100% 29.98 in 10.0 mi North 9.2 mph - N/A Thunderstorm Overcast
12:24 AM 59.0 °F 59.0 °F 100% 29.98 in 9.0 mi NE 4.6 mph - N/A   Overcast
12:26 AM 59.0 °F 59.0 °F 100% 29.98 in 9.0 mi Variable 3.5 mph - N/A   Overcast
12:34 AM 59.0 °F 59.0 °F 100% 29.97 in 10.0 mi Calm Calm - N/A   Overcast
12:55 AM 59.0 °F 59.0 °F 100% 29.96 in 10.0 mi ESE 5.8 mph - 0.00 in   Light Drizzle
1:03 AM 59.0 °F 59.0 °F 100% 29.95 in 8.0 mi ESE 10.4 mph - N/A Rain , Thunderstorm Light Thunderstorms and Rain
1:18 AM 59.0 °F 59.0 °F 100% 29.97 in 7.0 mi North 6.9 mph - N/A Rain Light Rain
1:29 AM 59.0 °F 59.0 °F 100% 29.97 in 8.0 mi NNE 3.5 mph - N/A   Overcast
1:43 AM 59.0 °F 59.0 °F 100% 29.97 in 9.0 mi NE 4.6 mph - N/A   Overcast
1:55 AM 58.3 °F 58.3 °F 100% 29.97 in 8.0 mi NNE 4.6 mph - 0.02 in   Overcast
2:55 AM 57.2 °F 57.2 °F 100% 29.94 in 10.0 mi ESE 9.2 mph - N/A   Clear
3:55 AM 56.8 °F 56.8 °F 100% 29.91 in 10.0 mi SE 9.2 mph - N/A   Clear
4:55 AM 58.1 °F 58.1 °F 100% 29.88 in 10.0 mi SSE 9.2 mph - N/A   Overcast
5:24 AM 60.8 °F 60.8 °F 100% 29.87 in 9.0 mi SSE 8.1 mph - N/A Rain Light Rain
5:35 AM 60.8 °F 60.8 °F 100% 29.88 in 10.0 mi South 3.5 mph - N/A Thunderstorm Overcast
5:51 AM 60.8 °F 60.8 °F 100% 29.87 in 10.0 mi SSE 5.8 mph - N/A Rain Light Rain
5:55 AM 61.3 °F 61.3 °F 100% 29.88 in 8.0 mi South 3.5 mph - 0.03 in Rain Light Rain
6:07 AM 62.6 °F 62.6 °F 100% 29.88 in 10.0 mi SSE 4.6 mph - N/A   Mostly Cloudy
6:55 AM 64.4 °F 63.5 °F 97% 29.89 in 10.0 mi SSW 9.2 mph - 0.00 in   Overcast
7:27 AM 64.4 °F 62.6 °F 94% 29.91 in 10.0 mi Variable 4.6 mph - N/A   Light Drizzle
7:55 AM 62.8 °F 62.8 °F 100% 29.94 in 5.0 mi Calm Calm - 0.01 in Rain Light Rain
8:18 AM 62.6 °F 62.6 °F 100% 29.95 in 4.0 mi NNE 3.5 mph - N/A Rain Light Rain
8:24 AM 62.6 °F 62.6 °F 100% 29.94 in 4.0 mi ENE 4.6 mph - N/A Rain Light Rain
8:25 AM 62.6 °F 62.6 °F 100% 29.94 in 4.0 mi ENE 4.6 mph - N/A Rain Light Rain
8:55 AM 61.7 °F 61.7 °F 100% 29.94 in 5.0 mi East 4.6 mph - 0.02 in   Light Drizzle
9:12 AM 60.8 °F 60.8 °F 100% 29.94 in 2.5 mi ESE 5.8 mph - N/A Rain Light Rain
9:27 AM 62.6 °F 62.6 °F 100% 29.93 in 3.0 mi SE 3.5 mph - N/A Rain Light Rain
9:39 AM 62.6 °F 62.6 °F 100% 29.93 in 1.8 mi Calm Calm - N/A Rain Light Rain
9:40 AM 62.6 °F 62.6 °F 100% 29.93 in 1.2 mi Calm Calm - N/A Rain Heavy Rain
9:42 AM 62.6 °F 62.6 °F 100% 29.93 in 1.0 mi Calm Calm - N/A Rain Heavy Rain
9:43 AM 62.6 °F 62.6 °F 100% 29.93 in 1.0 mi Calm Calm - N/A Rain , Thunderstorm Thunderstorms and Rain
9:49 AM 62.6 °F 62.6 °F 100% 29.93 in 1.2 mi SE 3.5 mph - N/A Rain , Thunderstorm Light Thunderstorms and Rain
9:50 AM 62.6 °F 62.6 °F 100% 29.93 in 1.8 mi SE 3.5 mph - N/A Rain , Thunderstorm Light Thunderstorms and Rain
9:51 AM 62.6 °F 62.6 °F 100% 29.93 in 2.0 mi SE 3.5 mph - N/A Rain , Thunderstorm Light Thunderstorms and Rain
9:55 AM 62.2 °F 62.2 °F 100% 29.93 in 2.5 mi ESE 4.6 mph - 0.15 in Rain , Thunderstorm Light Thunderstorms and Rain
9:58 AM 62.6 °F 62.6 °F 100% 29.93 in 3.0 mi ESE 5.8 mph - N/A Rain , Thunderstorm Light Thunderstorms and Rain
9:59 AM 62.6 °F 62.6 °F 100% 29.93 in 2.5 mi ESE 5.8 mph - N/A Rain , Thunderstorm Light Thunderstorms and Rain
10:07 AM 62.6 °F 62.6 °F 100% 29.93 in 2.0 mi SE 6.9 mph - N/A Rain Rain
10:22 AM 62.6 °F 62.6 °F 100% 29.94 in 2.5 mi South 9.2 mph - N/A Rain , Thunderstorm Light Rain
10:23 AM 62.6 °F 62.6 °F 100% 29.94 in 2.5 mi Variable 5.8 mph - N/A Rain , Thunderstorm Light Thunderstorms and Rain
10:24 AM 62.6 °F 62.6 °F 100% 29.94 in 3.0 mi Variable 4.6 mph - N/A Rain , Thunderstorm Light Thunderstorms and Rain
10:44 AM 62.6 °F 62.6 °F 100% 29.95 in 2.5 mi SSW 4.6 mph - N/A Rain , Thunderstorm Light Thunderstorms and Rain
10:45 AM 62.6 °F 62.6 °F 100% 29.95 in 1.8 mi Variable 3.5 mph - N/A Rain , Thunderstorm Thunderstorms and Rain
10:46 AM 62.6 °F 62.6 °F 100% 29.96 in 1.5 mi SW 3.5 mph - N/A Rain , Thunderstorm Heavy Thunderstorms and Rain
10:47 AM 62.6 °F 62.6 °F 100% 29.96 in 1.2 mi SW 3.5 mph - N/A Rain , Thunderstorm Heavy Thunderstorms and Rain
10:49 AM 62.6 °F 62.6 °F 100% 29.96 in 1.0 mi SW 4.6 mph - N/A Rain , Thunderstorm Heavy Thunderstorms and Rain
10:51 AM 62.6 °F 62.6 °F 100% 29.97 in 0.8 mi WSW 6.9 mph - N/A Rain , Thunderstorm Heavy Thunderstorms and Rain
10:52 AM 62.6 °F 62.6 °F 100% 29.97 in 0.5 mi Variable 6.9 mph - N/A Fog , Rain , Thunderstorm Heavy Thunderstorms and Rain
10:53 AM 62.6 °F 62.6 °F 100% 29.96 in 0.5 mi Variable 6.9 mph - N/A Fog , Rain , Thunderstorm Heavy Thunderstorms and Rain
10:55 AM 63.0 °F 63.0 °F 100% 29.96 in 0.5 mi SW 10.4 mph - 0.31 in Fog , Rain , Thunderstorm Heavy Thunderstorms and Rain
10:57 AM 62.6 °F 62.6 °F 100% 29.96 in 0.8 mi SW 8.1 mph - N/A Rain , Thunderstorm Thunderstorms and Rain
11:01 AM 62.6 °F 62.6 °F 100% 29.96 in 1.0 mi WSW 5.8 mph - N/A Rain , Thunderstorm Thunderstorms and Rain
11:02 AM 62.6 °F 62.6 °F 100% 29.96 in 1.5 mi Variable 5.8 mph - N/A Rain , Thunderstorm Thunderstorms and Rain
11:03 AM 62.6 °F 62.6 °F 100% 29.96 in 2.0 mi Variable 4.6 mph - N/A Rain , Thunderstorm Thunderstorms and Rain
11:04 AM 62.6 °F 62.6 °F 100% 29.96 in 3.0 mi Variable 4.6 mph - N/A Rain , Thunderstorm Thunderstorms and Rain
11:12 AM 62.6 °F 62.6 °F 100% 29.95 in 4.0 mi Variable 3.5 mph - N/A Rain Light Rain
11:39 AM 64.4 °F 64.4 °F 100% 29.90 in 10.0 mi SE 9.2 mph - N/A   Mostly Cloudy
11:55 AM 64.9 °F 64.9 °F 100% 29.90 in 10.0 mi SSE 6.9 mph - 0.05 in   Mostly Cloudy
12:55 PM 67.1 °F 64.9 °F 93% 29.91 in 10.0 mi South 9.2 mph - N/A   Scattered Clouds
1:55 PM 72.5 °F 63.5 °F 73% 29.87 in 10.0 mi South 8.1 mph - N/A   Clear
2:55 PM 75.2 °F 62.8 °F 65% 29.83 in 10.0 mi SSW 10.4 mph 21.9 mph N/A   Mostly Cloudy
3:55 PM 75.4 °F 63.5 °F 66% 29.79 in 10.0 mi South 16.1 mph 28.8 mph 0.01 in   Overcast
4:55 PM 76.5 °F 62.6 °F 62% 29.76 in 10.0 mi South 19.6 mph 31.1 mph N/A   Scattered Clouds
5:55 PM 75.9 °F 63.1 °F 64% 29.75 in 10.0 mi South 15.0 mph 25.3 mph N/A   Mostly Cloudy
6:55 PM 74.7 °F 62.1 °F 65% 29.74 in 10.0 mi South 12.7 mph 19.6 mph N/A   Clear
7:55 PM 72.5 °F 61.2 °F 67% 29.75 in 10.0 mi SSE 12.7 mph 20.7 mph N/A   Scattered Clouds
8:55 PM 71.2 °F 61.5 °F 71% 29.78 in 10.0 mi SSE 12.7 mph 19.6 mph N/A   Scattered Clouds
9:55 PM 70.5 °F 62.1 °F 74% 29.77 in 10.0 mi SSE 15.0 mph - N/A   Overcast
10:55 PM 70.0 °F 62.2 °F 76% 29.75 in 10.0 mi SSE 16.1 mph 21.9 mph N/A   Scattered Clouds
11:55 PM 69.4 °F 61.5 °F 76% 29.72 in 10.0 mi SSE 16.1 mph 26.5 mph N/A   Clear